shijiazhuang , China , ASIA

  • Thursday
    February 27

    Light rain  Light rain

    39 °F  30 °F

    Northeast  North

        

  • Friday
    February 28

    Sunny  Sunny

    50 °F  37 °F

    South  North

        

  • Saturday
    February 29

    Cloudy  Cloudy

    52 °F  37 °F

    South  North

        

  • Sunday
    March 1

    Sunny  Sunny

    57 °F  34 °F

    North  North

    3~4L    

  • Monday
    March 2

    Cloudy  Cloudy

    54 °F  36 °F

    Northwest  Northwest

    4~5L   3~4L 

  • Tuesday
    March 3

    Overcast  Cloudy

    46 °F  32 °F

    North  North

    3~4L    

  • Wednesday
    March 4

    Sunny  Sunny

    46 °F  30 °F

    South  North

        

Date   Weather Temperature Humidity Total_rain Visibility Wind
11:00 Sleet 35°F 70.4% 0.2mm 999.9km Southeast  1.8m/s
14:00 Cloudy 38°F 65.2% 0mm 999.9km Southeast  2.1m/s
17:00 Overcast 39°F 65.2% 0mm 999.9km Southeast  1.9m/s
20:00 Cloudy 36°F 80.7% 0mm 999.9km Southeast  1.7m/s
23:00 Sleet 30°F 87.7% 0.1mm 999.9km Southwest  1.0m/s
02:00 Sleet 30°F 91% 0.1mm 999.9km Southwest  1.0m/s
05:00 Sleet 30°F 89.1% 0.1mm 999.9km Southwest  0.8m/s
08:00 Sleet 30°F 84.7% 0.1mm 999.9km Southwest  1.4m/s
11:00 Sunny 45°F 58.5% 0mm 999.9km Southwest  1.9m/s
14:00 Sunny 50°F 70.5% 0mm 999.9km Southeast  2.5m/s
17:00 Sunny 49°F 71.6% 0mm 999.9km Southeast  2.9m/s
20:00 Sunny 46°F 87.2% 0mm 999.9km Southeast  1.7m/s
23:00 Sunny 43°F 97.2% 0mm 999.9km Southeast  1.2m/s
02:00 Sunny 40°F 96.7% 0mm 999.9km Southeast  1.2m/s
05:00 Sunny 38°F 98% 0mm 999.9km Southeast  1.4m/s
08:00 Sunny 38°F 67.1% 0mm 999.9km Northeast  1.5m/s
11:00 Cloudy 40°F 87% 0mm 999.9km Northeast  2.4m/s
14:00 Cloudy 44°F 91.9% 0mm 999.9km Northeast  2.2m/s
17:00 Cloudy 51°F 91.5% 0mm 999.9km Northeast  1.6m/s
20:00 Cloudy 49°F 92.9% 0mm 999.9km Northeast  1.6m/s
23:00 Cloudy 47°F 94.4% 0mm 999.9km Northwest  1.5m/s
02:00 Cloudy 38°F 95.4% 0mm 999.9km Northwest  1.1m/s
05:00 Cloudy 40°F 98% 0mm 999.9km Northwest  1.5m/s
08:00 Cloudy 51°F 96.6% 0mm 999.9km Northwest  1.4m/s
11:00 Sunny 46°F 22.5% 0mm 999.9km Northwest  3.6m/s
14:00 Sunny 56°F 29% 0mm 999.9km Northwest  4.1m/s
17:00 Sunny 57°F 25.2% 0mm 999.9km Northwest  2.6m/s
20:00 Sunny 46°F 37.9% 0mm 999.9km Northwest  2.1m/s
23:00 Sunny 40°F 39.2% 0mm 999.9km Northwest  1.9m/s
02:00 Sunny 37°F 38.5% 0mm 999.9km Northwest  1.5m/s
05:00 Sunny 36°F 37.8% 0mm 999.9km Southwest  1.7m/s
08:00 Sunny 34°F 25.2% 0mm 999.9km Southwest  2.4m/s
11:00 Cloudy 49°F 22.6% 0mm 999.9km Northwest  3.6m/s
14:00 Cloudy 53°F 24.1% 0mm 999.9km Northwest  3.0m/s
17:00 Cloudy 51°F 25.6% 0mm 999.9km Northwest  3.3m/s
20:00 Cloudy 46°F 32.3% 0mm 999.9km Northeast  1.8m/s
23:00 Cloudy 42°F 41% 0mm 999.9km Northwest  1.7m/s
02:00 Cloudy 38°F 43.2% 0mm 999.9km Northeast  1.6m/s
05:00 Cloudy 36°F 44.6% 0mm 999.9km Northwest  2.6m/s
08:00 Cloudy 37°F 36.6% 0mm 999.9km Northwest  2.2m/s
11:00 Overcast 41°F 15.8% 0mm 999.9km Northwest  2.6m/s
14:00 Overcast 44°F 18.1% 0mm 999.9km Northwest  2.3m/s
17:00 Overcast 46°F 20.4% 0mm 999.9km Northwest  3.7m/s
20:00 Overcast 41°F 21.3% 0mm 999.9km Northeast  1.7m/s
23:00 Cloudy 37°F 30.5% 0mm 999.9km Northeast  1.2m/s
02:00 Cloudy 37°F 30.3% 0mm 999.9km Northwest  1.1m/s
05:00 Cloudy 33°F 30.1% 0mm 999.9km Northwest  1.4m/s
08:00 Cloudy 32°F 19.3% 0mm 999.9km Southwest  1.5m/s
11:00 Sunny 39°F 16.1% 0mm 999.9km Northwest  1.9m/s
14:00 Sunny 40°F 17.5% 0mm 999.9km Southeast  3.0m/s
17:00 Sunny 46°F 18.9% 0mm 999.9km Southwest  2.9m/s
20:00 Sunny 42°F 28.8% 0mm 999.9km Southeast  2.1m/s
23:00 Sunny 37°F 43.3% 0mm 999.9km Southwest  1.5m/s
02:00 Sunny 32°F 43.4% 0mm 999.9km Southwest  0.9m/s
05:00 Sunny 31°F 43.6% 0mm 999.9km Southwest  1.1m/s